| time (UTC) | temp F | wind direction | speed knots | gust knots | rain 1hr in | rain 24hr in | rain mn in | humidity % | barometer mb |
| 20260506051005 | 58 | 360 | 9.6 | 12.2 | 0.00 | 0.00 | 0.00 | 93 | 1012.7 |
| 20260506050503 | 58 | 360 | 7.8 | 12.2 | 0.00 | 0.00 | 0.00 | 94 | 1012.4 |
| 20260506045006 | 58 | 22 | 9.6 | 14.8 | 0.00 | 0.00 | 0.00 | 94 | 1012.4 |
| 20260506044503 | 58 | 337 | 8.7 | 10.4 | 0.00 | 0.00 | 0.00 | 94 | 1012.4 |
| 20260506044006 | 58 | 337 | 8.7 | 12.2 | 0.00 | 0.00 | 0.00 | 94 | 1012.4 |
| 20260506043504 | 58 | 337 | 9.6 | 13.0 | 0.00 | 0.00 | 0.00 | 94 | 1012.7 |
| 20260506043006 | 59 | 337 | 7.8 | 12.2 | 0.00 | 0.00 | 0.00 | 95 | 1012.7 |
| 20260506042504 | 59 | 337 | 7.8 | 10.4 | 0.00 | 0.00 | 0.00 | 95 | 1012.4 |
| 20260506042007 | 59 | 337 | 7.8 | 11.3 | 0.00 | 0.00 | 0.00 | 94 | 1012.4 |
| 20260506041504 | 59 | 337 | 8.7 | 11.3 | 0.00 | 0.00 | 0.00 | 95 | 1012.4 |
| 20260506041006 | 59 | 360 | 9.6 | 14.8 | 0.00 | 0.00 | 0.00 | 95 | 1012.4 |
| 20260506040504 | 59 | 337 | 9.6 | 13.0 | 0.00 | 0.00 | 0.00 | 95 | 1012.1 |
| 20260506040005 | 59 | 337 | 8.7 | 13.9 | 0.00 | 0.00 | 0.00 | 95 | 1012.1 |
| 20260506035534 | 59 | 337 | 10.4 | 13.9 | 0.00 | 0.00 | 0.00 | 95 | 1011.7 |
| 20260506035005 | 59 | 337 | 7.8 | 10.4 | 0.00 | 0.00 | 0.00 | 95 | 1011.7 |
| 20260506034508 | 59 | 337 | 10.4 | 14.8 | 0.00 | 0.00 | 0.00 | 95 | 1011.7 |
| 20260506034004 | 60 | 337 | 10.4 | 14.8 | 0.00 | 0.00 | 0.00 | 95 | 1011.7 |
| 20260506033507 | 60 | 337 | 12.2 | 17.4 | 0.00 | 0.00 | 0.00 | 95 | 1011.4 |
| 20260506033005 | 60 | 22 | 7.8 | 12.2 | 0.00 | 0.00 | 0.00 | 95 | 1011.4 |
| 20260506032507 | 60 | 360 | 8.7 | 13.9 | 0.00 | 0.00 | 0.00 | 94 | 1011.0 |
| 20260506032004 | 60 | 337 | 10.4 | 13.9 | 0.00 | 0.00 | 0.00 | 94 | 1011.0 |
| 20260506031508 | 60 | 360 | 10.4 | 14.8 | 0.00 | 0.00 | 0.00 | 94 | 1011.0 |
| 20260506031004 | 61 | 337 | 8.7 | 13.0 | 0.00 | 0.00 | 0.00 | 93 | 1011.0 |
| 20260506030507 | 61 | 337 | 9.6 | 13.0 | 0.00 | 0.00 | 0.00 | 92 | 1011.0 |
| 20260506030004 | 61 | 337 | 11.3 | 15.6 | 0.00 | 0.00 | 0.00 | 93 | 1011.0 |
| 20260506025507 | 61 | 337 | 8.7 | 13.0 | 0.00 | 0.00 | 0.00 | 93 | 1010.7 |
| 20260506025009 | 61 | 337 | 7.8 | 12.2 | 0.00 | 0.00 | 0.00 | 93 | 1010.7 |
| 20260506024506 | 62 | 360 | 7.8 | 9.6 | 0.00 | 0.00 | 0.00 | 93 | 1010.4 |
| 20260506024003 | 62 | 360 | 7.8 | 12.2 | 0.00 | 0.00 | 0.00 | 92 | 1010.4 |
| 20260506023505 | 62 | 315 | 8.7 | 10.4 | 0.00 | 0.00 | 0.00 | 92 | 1010.4 |
| 20260506023003 | 62 | 337 | 9.6 | 11.3 | 0.00 | 0.00 | 0.00 | 92 | 1010.4 |
| 20260506022506 | 62 | 360 | 7.0 | 9.6 | 0.00 | 0.00 | 0.00 | 91 | 1009.7 |
| 20260506022002 | 62 | 22 | 10.4 | 14.8 | 0.00 | 0.00 | 0.00 | 91 | 1009.7 |
| 20260506021505 | 63 | 360 | 9.6 | 14.8 | 0.00 | 0.00 | 0.00 | 90 | 1009.4 |
| 20260506021002 | 63 | 337 | 11.3 | 13.9 | 0.00 | 0.00 | 0.00 | 90 | 1009.4 |
| 20260506020506 | 63 | 337 | 8.7 | 12.2 | 0.00 | 0.00 | 0.00 | 89 | 1008.7 |
| 20260506020003 | 64 | 360 | 9.6 | 12.2 | 0.00 | 0.00 | 0.00 | 90 | 1008.7 |
| 20260506015506 | 64 | 22 | 7.8 | 11.3 | 0.00 | 0.00 | 0.00 | 89 | 1008.7 |
| 20260506015035 | 65 | 337 | 8.7 | 11.3 | 0.00 | 0.00 | 0.00 | 88 | 1008.7 |
| 20260506014506 | 65 | 360 | 8.7 | 14.8 | 0.00 | 0.00 | 0.00 | 88 | 1008.3 |
| 20260506014002 | 65 | 337 | 5.2 | 7.0 | 0.00 | 0.00 | 0.00 | 87 | 1008.3 |
| 20260506013506 | 65 | 337 | 5.2 | 7.8 | 0.00 | 0.00 | 0.00 | 87 | 1008.0 |
| 20260506013002 | 65 | 337 | 7.0 | 9.6 | 0.00 | 0.00 | 0.00 | 86 | 1008.0 |
| 20260506012506 | 65 | 337 | 6.1 | 8.7 | 0.00 | 0.00 | 0.00 | 86 | 1008.0 |
| 20260506012003 | 65 | 360 | 4.3 | 6.1 | 0.00 | 0.00 | 0.00 | 85 | 1008.0 |
| 20260506011505 | 65 | 22 | 4.3 | 6.1 | 0.00 | 0.00 | 0.00 | 85 | 1007.3 |
| 20260506011003 | 65 | 337 | 6.1 | 8.7 | 0.00 | 0.00 | 0.00 | 85 | 1007.3 |
| 20260506010505 | 66 | 337 | 8.7 | 13.0 | 0.00 | 0.00 | 0.00 | 84 | 1006.6 |
| 20260506010002 | 66 | 337 | 9.6 | 13.9 | 0.00 | 0.00 | 0.00 | 83 | 1006.6 |
| 20260506005506 | 66 | 360 | 8.7 | 13.9 | 0.00 | 0.00 | 0.00 | 83 | 1007.0 |
| 20260506005003 | 66 | 337 | 9.6 | 13.0 | 0.00 | 0.00 | 0.00 | 83 | 1007.0 |
| 20260506004505 | 66 | 22 | 8.7 | 12.2 | 0.00 | 0.00 | 0.00 | 82 | 1006.6 |
| 20260506004002 | 66 | 337 | 10.4 | 13.0 | 0.00 | 0.00 | 0.00 | 82 | 1006.6 |
| 20260506003505 | 67 | 337 | 13.0 | 19.1 | 0.00 | 0.00 | 0.00 | 81 | 1006.3 |
| 20260506003008 | 68 | 337 | 9.6 | 12.2 | 0.00 | 0.00 | 0.00 | 82 | 1006.3 |
| 20260506002504 | 68 | 337 | 10.4 | 13.9 | 0.00 | 0.00 | 0.00 | 80 | 1005.6 |
| 20260506002007 | 68 | 337 | 9.6 | 12.2 | 0.00 | 0.00 | 0.00 | 80 | 1005.6 |
| 20260506001505 | 69 | 337 | 8.7 | 11.3 | 0.00 | 0.00 | 0.00 | 79 | 1006.3 |
| 20260506001007 | 69 | 337 | 10.4 | 16.5 | 0.00 | 0.00 | 0.00 | 79 | 1006.3 |
| 20260506000504 | 69 | 337 | 11.3 | 15.6 | 0.00 | 0.00 | 0.00 | 79 | 1006.0 |
| 20260506000007 | 70 | 337 | 8.7 | 13.0 | 0.00 | 0.00 | 0.00 | 79 | 1006.0 |
| 20260505235504 | 70 | 337 | 11.3 | 13.9 | 0.00 | 0.00 | 0.00 | 77 | 1005.6 |
| 20260505235008 | 70 | 360 | 12.2 | 16.5 | 0.00 | 0.00 | 0.00 | 77 | 1005.6 |
| 20260505234531 | 70 | 337 | 10.4 | 13.0 | 0.00 | 0.00 | 0.00 | 76 | 1005.3 |
| 20260505234008 | 71 | 337 | 13.0 | 16.5 | 0.00 | 0.00 | 0.00 | 76 | 1005.3 |
| 20260505233525 | 71 | 337 | 10.4 | 13.0 | 0.00 | 0.00 | 0.00 | 77 | 1004.9 |
| 20260505233005 | 71 | 337 | 11.3 | 15.6 | 0.00 | 0.00 | 0.00 | 75 | 1004.9 |
| 20260505232510 | 71 | 337 | 9.6 | 13.0 | 0.00 | 0.00 | 0.00 | 76 | 1004.9 |
| 20260505232006 | 72 | 337 | 7.8 | 10.4 | 0.00 | 0.00 | 0.00 | 76 | 1004.9 |
| 20260505231508 | 72 | 315 | 9.6 | 14.8 | 0.00 | 0.00 | 0.00 | 73 | 1004.3 |
| 20260505231004 | 73 | 337 | 12.2 | 17.4 | 0.00 | 0.00 | 0.00 | 73 | 1004.3 |
| 20260505230507 | 73 | 337 | 11.3 | 13.9 | 0.00 | 0.00 | 0.00 | 73 | 1004.3 |
| 20260505230004 | 74 | 337 | 12.2 | 15.6 | 0.00 | 0.00 | 0.00 | 71 | 1004.3 |
| 20260505225503 | 75 | 337 | 10.4 | 13.9 | 0.00 | 0.00 | 0.00 | 67 | 1003.9 |
| 20260505225005 | 75 | 337 | 13.0 | 17.4 | 0.00 | 0.00 | 0.00 | 65 | 1003.9 |
| 20260505224503 | 76 | 337 | 13.9 | 17.4 | 0.00 | 0.00 | 0.00 | 66 | 1003.3 |
| 20260505224006 | 76 | 315 | 10.4 | 13.0 | 0.00 | 0.00 | 0.00 | 67 | 1003.3 |
| 20260505223502 | 77 | 315 | 13.0 | 16.5 | 0.00 | 0.00 | 0.00 | 66 | 1002.9 |
| 20260505223006 | 77 | 337 | 10.4 | 13.0 | 0.00 | 0.00 | 0.00 | 66 | 1002.9 |
| 20260505222502 | 77 | 315 | 10.4 | 13.9 | 0.00 | 0.00 | 0.00 | 66 | 1002.2 |
| 20260505222005 | 78 | 315 | 10.4 | 16.5 | 0.00 | 0.00 | 0.00 | 64 | 1002.2 |
| 20260505221503 | 79 | 337 | 12.2 | 16.5 | 0.00 | 0.00 | 0.00 | 62 | 1002.2 |
| 20260505221006 | 79 | 292 | 9.6 | 12.2 | 0.00 | 0.00 | 0.00 | 63 | 1002.2 |
| 20260505220503 | 79 | 337 | 9.6 | 12.2 | 0.00 | 0.00 | 0.00 | 62 | 1001.6 |
| 20260505220006 | 80 | 315 | 9.6 | 12.2 | 0.00 | 0.00 | 0.00 | 62 | 1001.6 |
| 20260505215503 | 81 | 315 | 10.4 | 12.2 | 0.00 | 0.00 | 0.00 | 59 | 1001.6 |
| 20260505215006 | 81 | 315 | 8.7 | 12.2 | 0.00 | 0.00 | 0.00 | 59 | 1001.6 |
| 20260505214503 | 81 | 315 | 11.3 | 15.6 | 0.00 | 0.00 | 0.00 | 56 | 1001.9 |
| 20260505214032 | 80 | 315 | 10.4 | 13.9 | 0.00 | 0.00 | 0.00 | 56 | 1001.9 |
| 20260505213503 | 80 | 292 | 9.6 | 11.3 | 0.00 | 0.00 | 0.00 | 59 | 1001.6 |
| 20260505213006 | 81 | 315 | 9.6 | 11.3 | 0.00 | 0.00 | 0.00 | 57 | 1001.6 |
| 20260505212503 | 82 | 315 | 9.6 | 12.2 | 0.00 | 0.00 | 0.00 | 56 | 1001.2 |
| 20260505212005 | 82 | 337 | 11.3 | 14.8 | 0.00 | 0.00 | 0.00 | 54 | 1001.2 |
| 20260505211503 | 82 | 315 | 13.9 | 16.5 | 0.00 | 0.00 | 0.00 | 52 | 1001.2 |
| 20260505211006 | 82 | 315 | 11.3 | 13.9 | 0.00 | 0.00 | 0.00 | 50 | 1001.2 |
| 20260505210508 | 82 | 315 | 13.0 | 15.6 | 0.00 | 0.00 | 0.00 | 48 | 1001.6 |
| 20260505210006 | 83 | 292 | 12.2 | 15.6 | 0.00 | 0.00 | 0.00 | 46 | 1001.6 |
| 20260505205508 | 83 | 315 | 10.4 | 13.9 | 0.00 | 0.00 | 0.00 | 49 | 1001.6 |
| 20260505205006 | 83 | 292 | 11.3 | 16.5 | 0.00 | 0.00 | 0.00 | 44 | 1001.6 |
| 20260505204502 | 82 | 292 | 10.4 | 13.9 | 0.00 | 0.00 | 0.00 | 46 | 1001.6 |
| 20260505204005 | 82 | 337 | 12.2 | 15.6 | 0.00 | 0.00 | 0.00 | 46 | 1001.6 |
| 20260505203503 | 83 | 292 | 13.9 | 17.4 | 0.00 | 0.00 | 0.00 | 44 | 1000.9 |
| 20260505203005 | 83 | 315 | 13.9 | 16.5 | 0.00 | 0.00 | 0.00 | 47 | 1000.9 |
| 20260505202505 | 83 | 315 | 14.8 | 18.2 | 0.00 | 0.00 | 0.00 | 47 | 1001.2 |
| 20260505202008 | 84 | 292 | 18.2 | 23.5 | 0.00 | 0.00 | 0.00 | 47 | 1001.2 |
| 20260505201507 | 85 | 247 | 11.3 | 14.8 | 0.00 | 0.00 | 0.00 | 47 | 1001.6 |
| 20260505201004 | 85 | 247 | 10.4 | 14.8 | 0.00 | 0.00 | 0.00 | 46 | 1001.6 |
| 20260505200507 | 84 | 270 | 12.2 | 17.4 | 0.00 | 0.00 | 0.00 | 47 | 1001.2 |
| 20260505200004 | 85 | 247 | 12.2 | 16.5 | 0.00 | 0.00 | 0.00 | 47 | 1001.2 |
| 20260505195508 | 85 | 225 | 8.7 | 16.5 | 0.00 | 0.00 | 0.00 | 52 | 1001.2 |
| 20260505195005 | 85 | 202 | 10.4 | 13.0 | 0.00 | 0.00 | 0.00 | 56 | 1001.2 |
| 20260505194508 | 85 | 225 | 9.6 | 14.8 | 0.00 | 0.00 | 0.00 | 58 | 1001.6 |
| 20260505194004 | 84 | 247 | 13.0 | 16.5 | 0.00 | 0.00 | 0.00 | 62 | 1001.6 |
| 20260505193533 | 84 | 202 | 9.6 | 10.4 | 0.00 | 0.00 | 0.00 | 62 | 1001.6 |
| 20260505193003 | 84 | 202 | 9.6 | 11.3 | 0.00 | 0.00 | 0.00 | 62 | 1001.6 |
| 20260505192506 | 85 | 202 | 9.6 | 15.6 | 0.00 | 0.00 | 0.00 | 61 | 1001.2 |
| 20260505192009 | 85 | 202 | 9.6 | 13.0 | 0.00 | 0.00 | 0.00 | 63 | 1001.2 |
| 20260505191505 | 84 | 202 | 13.9 | 17.4 | 0.00 | 0.00 | 0.00 | 61 | 1001.6 |
| 20260505191002 | 85 | 202 | 13.9 | 16.5 | 0.00 | 0.00 | 0.00 | 61 | 1001.6 |
| 20260505190505 | 84 | 202 | 13.0 | 17.4 | 0.00 | 0.00 | 0.00 | 61 | 1001.6 |
| 20260505190008 | 84 | 202 | 13.9 | 17.4 | 0.00 | 0.00 | 0.00 | 61 | 1001.6 |
| 20260505185504 | 83 | 202 | 15.6 | 19.1 | 0.00 | 0.00 | 0.00 | 60 | 1001.6 |
| 20260505185006 | 83 | 202 | 13.9 | 16.5 | 0.00 | 0.00 | 0.00 | 59 | 1001.6 |
| 20260505184503 | 83 | 202 | 12.2 | 15.6 | 0.00 | 0.00 | 0.00 | 61 | 1001.6 |
| 20260505184005 | 83 | 202 | 13.9 | 16.5 | 0.00 | 0.00 | 0.00 | 58 | 1001.6 |
| 20260505183507 | 83 | 202 | 12.2 | 16.5 | 0.00 | 0.00 | 0.00 | 59 | 1001.6 |
| 20260505183005 | 83 | 202 | 13.9 | 17.4 | 0.00 | 0.00 | 0.00 | 59 | 1001.6 |
| 20260505182507 | 83 | 202 | 11.3 | 13.9 | 0.00 | 0.00 | 0.00 | 64 | 1001.6 |
| 20260505182004 | 83 | 180 | 10.4 | 14.8 | 0.00 | 0.00 | 0.00 | 65 | 1001.6 |
| 20260505181506 | 83 | 225 | 8.7 | 10.4 | 0.00 | 0.00 | 0.00 | 67 | 1001.9 |
| 20260505181004 | 83 | 202 | 10.4 | 12.2 | 0.00 | 0.00 | 0.00 | 67 | 1001.9 |
| 20260505180506 | 82 | 202 | 9.6 | 11.3 | 0.00 | 0.00 | 0.00 | 68 | 1002.2 |
| 20260505180003 | 81 | 202 | 10.4 | 14.8 | 0.00 | 0.00 | 0.00 | 69 | 1002.2 |
| 20260505175506 | 81 | 202 | 13.0 | 15.6 | 0.00 | 0.00 | 0.00 | 68 | 1002.2 |
| 20260505175003 | 81 | 202 | 13.0 | 16.5 | 0.00 | 0.00 | 0.00 | 70 | 1002.2 |
| 20260505174506 | 81 | 202 | 12.2 | 17.4 | 0.00 | 0.00 | 0.00 | 70 | 1002.2 |
| 20260505174003 | 80 | 202 | 13.9 | 16.5 | 0.00 | 0.00 | 0.00 | 71 | 1002.2 |
| 20260505173507 | 80 | 202 | 10.4 | 13.9 | 0.00 | 0.00 | 0.00 | 74 | 1002.6 |
| 20260505173029 | 80 | 180 | 11.3 | 14.8 | 0.00 | 0.00 | 0.00 | 74 | 1002.6 |
| 20260505172507 | 79 | 202 | 15.6 | 18.2 | 0.00 | 0.00 | 0.00 | 74 | 1002.2 |
| 20260505172004 | 79 | 180 | 15.6 | 20.0 | 0.00 | 0.00 | 0.00 | 74 | 1002.2 |
| 20260505171506 | 79 | 202 | 13.9 | 18.2 | 0.00 | 0.00 | 0.00 | 74 | 1002.9 |
| 20260505171004 | 79 | 180 | 13.9 | 16.5 | 0.00 | 0.00 | 0.00 | 76 | 1002.9 |
| 20260505170506 | 78 | 180 | 12.2 | 17.4 | 0.00 | 0.00 | 0.00 | 76 | 1002.9 |
| 20260505170003 | 78 | 180 | 12.2 | 16.5 | 0.00 | 0.00 | 0.00 | 79 | 1002.9 |
| 20260505165506 | 78 | 202 | 14.8 | 16.5 | 0.00 | 0.00 | 0.00 | 80 | 1003.3 |
| 20260505165003 | 77 | 202 | 10.4 | 13.0 | 0.00 | 0.00 | 0.00 | 82 | 1003.3 |
| 20260505164506 | 77 | 202 | 13.9 | 17.4 | 0.00 | 0.00 | 0.00 | 82 | 1003.3 |
| 20260505164003 | 76 | 202 | 13.9 | 16.5 | 0.00 | 0.00 | 0.00 | 83 | 1003.3 |
| 20260505163506 | 76 | 202 | 14.8 | 19.1 | 0.00 | 0.00 | 0.00 | 83 | 1003.3 |
| 20260505163003 | 76 | 180 | 16.5 | 20.9 | 0.00 | 0.00 | 0.00 | 83 | 1003.3 |
| 20260505162505 | 76 | 202 | 14.8 | 18.2 | 0.00 | 0.00 | 0.00 | 84 | 1003.3 |
| 20260505162008 | 76 | 202 | 13.0 | 14.8 | 0.00 | 0.00 | 0.00 | 85 | 1003.3 |
| 20260505161505 | 76 | 202 | 14.8 | 18.2 | 0.00 | 0.00 | 0.00 | 85 | 1003.3 |
| 20260505161008 | 76 | 180 | 13.9 | 17.4 | 0.00 | 0.00 | 0.00 | 85 | 1003.3 |
| 20260505160505 | 76 | 202 | 13.0 | 17.4 | 0.00 | 0.00 | 0.00 | 85 | 1002.9 |
| 20260505153007 | 76 | 202 | 16.5 | 20.9 | 0.00 | 0.00 | 0.00 | 83 | 1002.9 |
| 20260505152536 | 76 | 180 | 12.2 | 15.6 | 0.00 | 0.00 | 0.00 | 87 | 1002.9 |
| 20260505152006 | 75 | 202 | 14.8 | 18.2 | 0.00 | 0.00 | 0.00 | 85 | 1002.9 |
| 20260505151503 | 75 | 180 | 18.2 | 23.5 | 0.00 | 0.00 | 0.00 | 85 | 1002.9 |
| 20260505151007 | 75 | 180 | 15.6 | 18.2 | 0.00 | 0.00 | 0.00 | 86 | 1002.9 |
| 20260505150508 | 75 | 202 | 12.2 | 15.6 | 0.00 | 0.00 | 0.00 | 87 | 1003.3 |
| 20260505140503 | 72 | 180 | 13.9 | 16.5 | 0.00 | 0.00 | 0.00 | 96 | 1003.9 |
| 20260505125003 | 70 | 180 | 9.6 | 12.2 | 0.00 | 0.00 | 0.00 | 100 | 1004.3 |
| 20260505124506 | 69 | 180 | 10.4 | 14.8 | 0.00 | 0.00 | 0.00 | 100 | 1003.9 |
| 20260505124004 | 69 | 180 | 15.6 | 19.1 | 0.00 | 0.00 | 0.00 | 100 | 1003.9 |
| 20260505123506 | 69 | 180 | 12.2 | 16.5 | 0.00 | 0.00 | 0.00 | 100 | 1003.6 |
| 20260505123003 | 69 | 180 | 11.3 | 15.6 | 0.00 | 0.00 | 0.00 | 100 | 1003.6 |
| 20260505122506 | 69 | 180 | 11.3 | 14.8 | 0.00 | 0.00 | 0.00 | 100 | 1003.6 |
| 20260505122004 | 69 | 202 | 11.3 | 13.9 | 0.00 | 0.00 | 0.00 | 100 | 1003.6 |
| 20260505121506 | 69 | 180 | 12.2 | 17.4 | 0.00 | 0.00 | 0.00 | 100 | 1003.6 |
| 20260505121003 | 69 | 180 | 13.9 | 16.5 | 0.00 | 0.00 | 0.00 | 100 | 1003.6 |
| 20260505120506 | 69 | 180 | 10.4 | 13.9 | 0.00 | 0.00 | 0.00 | 100 | 1003.6 |
| 20260505120004 | 69 | 180 | 12.2 | 14.8 | 0.00 | 0.00 | 0.00 | 100 | 1003.6 |
| 20260505115506 | 69 | 180 | 13.0 | 17.4 | 0.00 | 0.00 | 0.00 | 100 | 1003.9 |
| 20260505115003 | 69 | 180 | 11.3 | 14.8 | 0.00 | 0.00 | 0.00 | 100 | 1003.9 |
| 20260505114506 | 69 | 202 | 12.2 | 16.5 | 0.00 | 0.00 | 0.00 | 100 | 1003.6 |
| 20260505114004 | 68 | 180 | 12.2 | 15.6 | 0.00 | 0.00 | 0.00 | 100 | 1003.6 |
| 20260505113506 | 68 | 180 | 10.4 | 13.0 | 0.00 | 0.00 | 0.00 | 100 | 1003.6 |
| 20260505113003 | 68 | 180 | 11.3 | 13.9 | 0.00 | 0.00 | 0.00 | 100 | 1003.6 |
| 20260505112506 | 68 | 180 | 9.6 | 12.2 | 0.00 | 0.00 | 0.00 | 100 | 1003.6 |
| 20260505112004 | 68 | 180 | 12.2 | 15.6 | 0.00 | 0.00 | 0.00 | 100 | 1003.6 |
| 20260505111533 | 68 | 180 | 11.3 | 15.6 | 0.00 | 0.00 | 0.00 | 100 | 1003.6 |
| 20260505111004 | 68 | 180 | 10.4 | 13.0 | 0.00 | 0.00 | 0.00 | 100 | 1003.6 |
| 20260505110507 | 68 | 180 | 10.4 | 13.9 | 0.00 | 0.00 | 0.00 | 100 | 1003.6 |
| 20260505102004 | 69 | 180 | 14.8 | 20.0 | 0.00 | 0.00 | 0.00 | 100 | 1003.6 |
| 20260505101503 | 69 | 180 | 13.9 | 16.5 | 0.00 | 0.00 | 0.00 | 100 | 1003.6 |
| 20260505101006 | 69 | 180 | 11.3 | 13.9 | 0.00 | 0.00 | 0.00 | 100 | 1003.6 |
| 20260505100503 | 69 | 180 | 10.4 | 13.9 | 0.00 | 0.00 | 0.00 | 100 | 1003.6 |
| 20260505100007 | 69 | 180 | 9.6 | 11.3 | 0.00 | 0.00 | 0.00 | 100 | 1003.6 |
| 20260505095502 | 70 | 180 | 10.4 | 13.0 | 0.00 | 0.00 | 0.00 | 100 | 1003.6 |
| 20260505095006 | 70 | 180 | 12.2 | 17.4 | 0.00 | 0.00 | 0.00 | 100 | 1003.6 |
| 20260505094503 | 70 | 180 | 13.9 | 18.2 | 0.00 | 0.00 | 0.00 | 100 | 1002.9 |
| 20260505094007 | 70 | 180 | 13.9 | 16.5 | 0.00 | 0.00 | 0.00 | 99 | 1002.9 |
| 20260505093504 | 70 | 157 | 13.0 | 16.5 | 0.00 | 0.00 | 0.00 | 99 | 1003.3 |
| 20260505093007 | 70 | 180 | 14.8 | 18.2 | 0.00 | 0.00 | 0.00 | 99 | 1003.3 |
| 20260505092504 | 70 | 157 | 12.2 | 15.6 | 0.00 | 0.00 | 0.00 | 99 | 1003.3 |
| 20260505092003 | 70 | 180 | 13.9 | 16.5 | 0.00 | 0.00 | 0.00 | 98 | 1003.3 |
| 20260505091506 | 70 | 180 | 13.0 | 15.6 | 0.00 | 0.00 | 0.00 | 97 | 1003.6 |
| 20260505091035 | 70 | 180 | 14.8 | 19.1 | 0.00 | 0.00 | 0.00 | 97 | 1003.6 |
| 20260505090506 | 70 | 180 | 13.9 | 17.4 | 0.00 | 0.00 | 0.00 | 97 | 1003.6 |
| 20260505090004 | 71 | 157 | 12.2 | 17.4 | 0.00 | 0.00 | 0.00 | 96 | 1003.6 |
| 20260505085506 | 71 | 180 | 14.8 | 17.4 | 0.00 | 0.00 | 0.00 | 96 | 1003.6 |
| 20260505085003 | 71 | 180 | 14.8 | 18.2 | 0.00 | 0.00 | 0.00 | 95 | 1003.6 |
| 20260505084506 | 71 | 180 | 13.9 | 16.5 | 0.00 | 0.00 | 0.00 | 94 | 1003.6 |
| 20260505084003 | 71 | 180 | 16.5 | 20.9 | 0.00 | 0.00 | 0.00 | 93 | 1003.6 |
| 20260505083507 | 71 | 202 | 15.6 | 20.0 | 0.00 | 0.00 | 0.00 | 92 | 1003.3 |
| 20260505083003 | 71 | 180 | 15.6 | 20.0 | 0.00 | 0.00 | 0.00 | 91 | 1003.3 |
| 20260505082506 | 72 | 180 | 15.6 | 18.2 | 0.00 | 0.00 | 0.00 | 90 | 1003.3 |
| 20260505082003 | 72 | 157 | 12.2 | 15.6 | 0.00 | 0.00 | 0.00 | 89 | 1003.3 |
| 20260505081506 | 72 | 180 | 15.6 | 18.2 | 0.00 | 0.00 | 0.00 | 89 | 1003.3 |
| 20260505081004 | 72 | 180 | 16.5 | 20.0 | 0.00 | 0.00 | 0.00 | 88 | 1003.3 |
| 20260505080506 | 72 | 180 | 15.6 | 19.1 | 0.00 | 0.00 | 0.00 | 87 | 1003.3 |
| 20260505080004 | 72 | 202 | 13.9 | 18.2 | 0.00 | 0.00 | 0.00 | 87 | 1003.3 |
| 20260505075506 | 72 | 180 | 12.2 | 15.6 | 0.00 | 0.00 | 0.00 | 87 | 1003.3 |
| 20260505075003 | 72 | 180 | 11.3 | 13.9 | 0.00 | 0.00 | 0.00 | 86 | 1003.3 |
| 20260505074506 | 72 | 180 | 15.6 | 19.1 | 0.00 | 0.00 | 0.00 | 85 | 1003.6 |
| 20260505074004 | 72 | 180 | 15.6 | 20.9 | 0.00 | 0.00 | 0.00 | 85 | 1003.6 |
| 20260505073506 | 72 | 180 | 14.8 | 18.2 | 0.00 | 0.00 | 0.00 | 84 | 1003.9 |
| 20260505073002 | 73 | 180 | 16.5 | 20.9 | 0.00 | 0.00 | 0.00 | 83 | 1003.9 |
| 20260505072507 | 73 | 180 | 12.2 | 15.6 | 0.00 | 0.00 | 0.00 | 83 | 1003.9 |
| 20260505072004 | 73 | 180 | 12.2 | 16.5 | 0.00 | 0.00 | 0.00 | 82 | 1003.9 |
| 20260505071504 | 73 | 180 | 15.6 | 18.2 | 0.00 | 0.00 | 0.00 | 82 | 1004.3 |
| 20260505071007 | 73 | 180 | 13.0 | 16.5 | 0.00 | 0.00 | 0.00 | 82 | 1004.3 |
| 20260505070531 | 73 | 180 | 16.5 | 20.0 | 0.00 | 0.00 | 0.00 | 80 | 1004.3 |
| 20260505070004 | 73 | 180 | 14.8 | 21.7 | 0.00 | 0.00 | 0.00 | 80 | 1004.3 |
| 20260505065506 | 73 | 180 | 13.9 | 19.1 | 0.00 | 0.00 | 0.00 | 80 | 1004.3 |
| 20260505065003 | 73 | 180 | 15.6 | 19.1 | 0.00 | 0.00 | 0.00 | 80 | 1004.3 |
| 20260505064506 | 73 | 180 | 15.6 | 19.1 | 0.00 | 0.00 | 0.00 | 79 | 1004.3 |
| 20260505064003 | 73 | 180 | 15.6 | 17.4 | 0.00 | 0.00 | 0.00 | 79 | 1004.3 |
| 20260505063506 | 73 | 180 | 13.0 | 15.6 | 0.00 | 0.00 | 0.00 | 79 | 1004.3 |
| 20260505063003 | 74 | 180 | 12.2 | 16.5 | 0.00 | 0.00 | 0.00 | 78 | 1004.3 |
| 20260505062506 | 74 | 180 | 12.2 | 17.4 | 0.00 | 0.00 | 0.00 | 77 | 1004.3 |
| 20260505062003 | 74 | 157 | 13.9 | 18.2 | 0.00 | 0.00 | 0.00 | 77 | 1004.3 |
| 20260505061506 | 74 | 180 | 14.8 | 22.6 | 0.00 | 0.00 | 0.00 | 77 | 1004.3 |
| 20260505061003 | 74 | 180 | 13.9 | 17.4 | 0.00 | 0.00 | 0.00 | 75 | 1004.3 |
| 20260505060507 | 74 | 157 | 12.2 | 15.6 | 0.00 | 0.00 | 0.00 | 76 | 1004.3 |
| 20260505060003 | 74 | 180 | 14.8 | 17.4 | 0.00 | 0.00 | 0.00 | 76 | 1004.3 |
| 20260505055506 | 74 | 180 | 13.9 | 16.5 | 0.00 | 0.00 | 0.00 | 77 | 1004.3 |